(2017 FH101) |
Classification: Apollo [NEO] SPK-ID: 3772980 |
[ hide orbit diagram ]
For accurate long-term ephemerides, please instead use our Horizons system.This orbit viewer was implemented using two-body methods, and hence should not be used for determining accurate long-term trajectories (over several years or decades) or planetary encounter circumstances.
Orbital Elements at Epoch 2459000.5 (2020-May-31.0) TDB
Reference: JPL 26 (heliocentric ecliptic J2000)
Element | Value | Uncertainty (1-sigma) | Units |
e | .4594306620513963 | 7.87e-06 | |
a | 1.786240722836804 | 2.4924e-05 | au |
q | .9655869649607268 | 5.9536e-07 | au |
i | 9.249202638629599 | 0.00012055 | deg |
node | 199.4682131662029 | 1.7303e-05 | deg |
peri | 51.25421593650989 | 5.9097e-05 | deg |
M | 94.7892716665216 | 0.009484 | deg |
tp | 2458770.903590727623 (2019-Oct-14.40359073) | 0.018166 | TDB |
period | 871.9837792281348 2.39 | 0.018251 4.997e-05 | d yr |
n | .4128517164833798 | 8.6411e-06 | deg/d |
Q | 2.606894480712882 | 3.6375e-05 | au |
|
| | Orbit Determination Parameters
Additional Information
|
[ show covariance matrix ]
Physical Parameter Table
Parameter |
Symbol |
Value |
Units |
Sigma |
Reference |
Notes |
absolute magnitude |
H |
22.5 |
|
.50884 |
26 |
autocmod 2.6k |
rotation period |
rot_per |
0.3468 |
h |
n/a |
LCDB (Rev. 2020-October); Warner et al., 2009 |
Published Reference List: [Warner, B.D. (2017) Minor Planet Bull. 44, 335-344.] |
|
[ show close-approach data ]
|